Tracking 33068 objects as of 24-Jan-2026
HD Live streaming from Space Station
objects crossing your sky now

DELTA 1 DEB

Track DELTA 1 DEB now!
10-day predictions


NORAD ID: 8956
Int'l Code: 1975-004AN
Perigee: 600.8 km
Apogee: 634.6 km
Inclination: 98.4 °
Period: 96.9 minutes
Semi major axis: 6988 km
RCS: 1.9274 m2 (large)
Launch date: January 22, 1975
Source: United States (US)
Launch site: AIR FORCE WESTERN TEST RANGE (AFWTR)

Note: This is SATELLITE DEBRIS
Your satellite tracking list
Your tracking list is empty




NASA's NSSDC Master Catalog

Two Line Element Set (TLE):
1  8956U 75004AN  26024.46240411  .00004411  00000-0  50932-3 0  9992
2  8956  98.3625 203.5418 0024152  24.3914 335.8437 14.85966905640627
Source of the keplerian elements: AFSPC